This demonstration page uses our WeatherBlox Daily Observations layout. Learn more.

Left ArrowRight Arrow

39.51506, -84.39828

Hourly Observations for June 6, 2018

Temp ( °F °C ) Dew Point ( °F °C ) Humidity (%) Winds ( mph kmh ) Pressure ( in mb ) Visibility ( mi km ) Precip ( " mm )
12:15 am 00:15 Mostly Cloudy 65 18.4 64 17.6 95 95 N N/A 29.83 1010 10 16 N/A
12:35 am 00:35 Partly Cloudy 65 18.6 62 16.8 89 89 NW 5 7 29.83 1010 10 16 N/A
12:55 am 00:55 Partly Cloudy 65 18.3 62 16.8 91 91 NNW 6 9 29.83 1010 10 16 N/A
1:15 am 01:15 Partly Cloudy 64 18 62 16.4 90 90 NNW 7 11 29.83 1010 10 16 N/A
1:35 am 01:35 Mostly Cloudy 64 17.5 55 12.6 73 73 NNW 10 17 29.83 1010 10 16 N/A
1:55 am 01:55 Mostly Cloudy 62 16.8 54 12.4 75 75 N 7 11 29.85 1011 10 16 N/A
2:15 am 02:15 Mostly Cloudy 61 16 54 12.3 79 79 N N/A 29.85 1011 10 16 N/A
2:35 am 02:35 Mostly Cloudy 60 15.4 55 12.7 84 84 N 6 9 29.85 1011 10 16 N/A
2:55 am 02:55 Clear 60 15.5 56 13.4 87 87 N 8 13 29.85 1011 10 16 N/A
3:15 am 03:15 Partly Cloudy 61 15.9 56 13.1 84 84 NE 10 17 29.85 1011 10 16 N/A
3:35 am 03:35 Clear 59 15.1 55 13 87 87 NE 9 15 29.85 1011 10 16 N/A
3:55 am 03:55 Clear 59 14.8 55 12.7 87 87 NNE 8 13 29.85 1011 10 16 N/A
4:15 am 04:15 Clear 58 14.4 54 12.4 88 88 NNE 7 11 29.85 1011 10 16 N/A
4:35 am 04:35 Clear 56 13.5 54 12 91 91 NNE 6 9 29.91 1013 10 16 N/A
4:55 am 04:55 Clear 56 13.5 53 11.8 90 90 N 6 9 29.91 1013 10 16 N/A
5:15 am 05:15 Clear 56 13.2 53 11.6 90 90 NNE 6 9 29.91 1013 10 16 N/A
5:35 am 05:35 Clear 55 13 53 11.4 90 90 NNE 7 11 29.91 1013 10 16 N/A
5:55 am 05:55 Clear 56 13.1 52 11.2 88 88 NNE 9 15 29.91 1013 10 16 N/A
6:15 am 06:15 Sunny 55 13 52 11 88 88 NNE 8 13 29.94 1014 10 16 N/A
6:35 am 06:35 Sunny 55 12.9 52 11.1 89 89 NNE 8 13 29.94 1014 10 16 N/A
6:55 am 06:55 Sunny 55 13 52 11 88 88 NNE 9 15 29.94 1014 10 16 N/A
7:15 am 07:15 Sunny 56 13.3 52 10.9 86 86 NNE 7 11 29.94 1014 10 16 N/A
7:35 am 07:35 Sunny 57 13.7 51 10.6 82 82 NNE 9 15 29.97 1015 10 16 N/A
7:55 am 07:55 Sunny 58 14.4 51 10.6 78 78 ENE 12 19 29.97 1015 10 16 N/A
8:15 am 08:15 Sunny 59 14.9 50 10 73 73 NE 10 17 29.94 1014 10 16 N/A
8:35 am 08:35 Sunny 60 15.3 49 9.5 69 69 ENE 10 17 29.97 1015 10 16 N/A
8:55 am 08:55 Sunny 61 15.9 49 9.6 66 66 ENE 8 13 29.97 1015 10 16 N/A
9:15 am 09:15 Sunny 61 16 49 9.4 65 65 NE 10 17 29.97 1015 10 16 N/A
9:35 am 09:35 Sunny 62 16.5 50 9.9 65 65 ENE 7 11 29.97 1015 10 16 N/A
9:55 am 09:55 Sunny 62 16.8 48 9.1 61 61 NNE 8 13 29.97 1015 10 16 N/A
10:15 am 10:15 Sunny 63 17.3 50 9.8 62 62 ENE 8 13 29.97 1015 10 16 N/A
10:35 am 10:35 Sunny 64 17.7 49 9.7 60 60 NE 9 15 29.97 1015 10 16 N/A
10:55 am 10:55 Sunny 65 18.5 50 10.1 58 58 ENE 8 13 29.97 1015 10 16 N/A
11:15 am 11:15 Sunny 65 18.4 49 9.7 57 57 NNE 6 9 29.97 1015 10 16 N/A
11:35 am 11:35 Sunny 66 18.8 50 9.8 56 56 N 8 13 29.97 1015 10 16 N/A
11:55 am 11:55 Sunny 66 19.1 49 9.6 54 54 ENE 5 7 29.97 1015 10 16 N/A
12:15 pm 12:15 Sunny 68 20 51 10.6 55 55 NE 6 9 29.97 1015 10 16 N/A
12:35 pm 12:35 Sunny 68 20.2 50 10.2 53 53 NE 12 19 29.97 1015 10 16 N/A
12:55 pm 12:55 Sunny 68 20.2 52 10.9 55 55 N 12 19 29.97 1015 10 16 N/A
1:15 pm 13:15 Sunny 69 20.6 52 10.9 54 54 NNE 10 17 29.97 1015 10 16 N/A
1:35 pm 13:35 Sunny 70 21.1 52 11 53 53 NNW 6 9 29.97 1015 10 16 N/A
1:55 pm 13:55 Sunny 70 21.2 51 10.7 51 51 N 8 13 29.97 1015 10 16 N/A
2:15 pm 14:15 Sunny 71 21.5 50 10.2 49 49 N 5 7 29.97 1015 10 16 N/A
2:35 pm 14:35 Sunny 71 21.4 51 10.3 49 49 N 5 7 29.94 1014 10 16 N/A
2:55 pm 14:55 Sunny 71 21.9 50 10.1 47 47 NNE 6 9 29.94 1014 10 16 N/A
3:15 pm 15:15 Sunny 72 22.1 51 10.5 48 48 WNW 3 6 29.94 1014 10 16 N/A
3:35 pm 15:35 Sunny 73 22.5 51 10.4 46 46 NE 7 11 29.94 1014 10 16 N/A
3:55 pm 15:55 Sunny 73 22.8 51 10.4 46 46 E 6 9 29.94 1014 10 16 N/A
4:15 pm 16:15 Sunny 73 22.9 52 10.9 47 47 NNW 7 11 29.94 1014 10 16 N/A
4:35 pm 16:35 Sunny 73 23 50 10.1 44 44 ENE 6 9 29.94 1014 10 16 N/A
4:55 pm 16:55 Sunny 74 23.2 50 9.9 43 43 NE 6 9 29.94 1014 10 16 N/A
5:15 pm 17:15 Sunny 73 23 48 8.9 41 41 N 6 9 29.94 1014 10 16 N/A
5:35 pm 17:35 Sunny 74 23.3 50 9.8 42 42 N 6 9 29.94 1014 10 16 N/A
5:55 pm 17:55 Sunny 74 23.3 49 9.7 42 42 NNE 6 9 29.94 1014 10 16 N/A
6:15 pm 18:15 Sunny 74 23.3 49 9.6 42 42 N N/A 29.94 1014 10 16 N/A
6:35 pm 18:35 Sunny 74 23.3 49 9.3 41 41 ENE 6 9 29.91 1013 10 16 N/A
6:55 pm 18:55 Sunny 74 23.2 49 9.3 41 41 N N/A 29.91 1013 10 16 N/A
7:15 pm 19:15 Sunny 73 22.9 49 9.7 43 43 N 3 6 29.91 1013 10 16 N/A
7:35 pm 19:35 Sunny 73 22.9 51 10.7 46 46 NNE 3 6 29.91 1013 10 16 N/A
7:55 pm 19:55 Sunny 71 21.8 51 10.7 49 49 NNW 3 6 29.94 1014 10 16 N/A
8:15 pm 20:15 Sunny 69 20.7 53 11.5 56 56 NW 5 7 29.94 1014 10 16 N/A
8:35 pm 20:35 Sunny 67 19.5 54 12.4 64 64 NE 3 6 29.94 1014 10 16 N/A
8:55 pm 20:55 Sunny 67 19.3 54 12.2 64 64 ENE 3 6 29.94 1014 10 16 N/A
9:15 pm 21:15 Clear 62 16.5 56 13.1 80 80 N N/A 29.94 1014 10 16 N/A
9:35 pm 21:35 Clear 60 15.7 55 12.7 82 82 E 3 6 29.94 1014 10 16 N/A
9:55 pm 21:55 Clear 59 15 55 12.9 87 87 N 3 6 29.94 1014 10 16 N/A
10:15 pm 22:15 Clear 59 15.2 55 12.8 86 86 N 5 7 29.97 1015 10 16 N/A
10:35 pm 22:35 Clear 58 14.6 54 12.4 87 87 N N/A 30.00 1016 10 16 N/A
10:55 pm 22:55 Clear 57 14.1 54 12.2 88 88 NW 5 7 30.00 1016 10 16 N/A
11:15 pm 23:15 Clear 57 13.9 54 12.2 90 90 N N/A 30.00 1016 10 16 N/A
11:35 pm 23:35 Clear 56 13.3 53 11.9 91 91 N N/A 29.97 1015 10 16 N/A
11:55 pm 23:55 Clear 56 13.5 54 12.1 91 91 N N/A 30.00 1016 10 16 N/A

Powered by AerisWeather